Time,TemperatureF,DewpointF,PressureIn,WindDirection,WindDirectionDegrees,WindSpeedMPH,WindSpeedGustMPH,Humidity,HourlyPrecipIn,Conditions,Clouds,dailyrainin,SoftwareType,DateUTC
2013-08-24 00:11:00,60.2,58.0,29.89,South,182,0.0,0.0,92,0.00,,,0.00,weatherlink.com 1.10,2013-08-24 07:11:00,
2013-08-24 00:26:00,60.0,58.0,29.89,South,182,0.0,0.0,93,0.00,,,0.00,weatherlink.com 1.10,2013-08-24 07:26:00,
2013-08-24 00:41:00,59.8,58.0,29.89,South,182,0.0,0.0,93,0.00,,,0.00,weatherlink.com 1.10,2013-08-24 07:41:00,
2013-08-24 00:56:00,59.5,58.0,29.89,South,182,0.0,0.0,93,0.00,,,0.00,weatherlink.com 1.10,2013-08-24 07:56:00,
2013-08-24 01:11:00,59.1,57.0,29.89,South,182,0.0,0.0,94,0.00,,,0.00,weatherlink.com 1.10,2013-08-24 08:11:00,
2013-08-24 01:26:00,58.9,57.0,29.89,South,182,0.0,0.0,94,0.00,,,0.00,weatherlink.com 1.10,2013-08-24 08:26:00,
2013-08-24 01:42:00,58.5,57.0,29.89,South,182,0.0,0.0,94,0.00,,,0.00,weatherlink.com 1.10,2013-08-24 08:42:00,
2013-08-24 01:56:00,58.2,57.0,29.89,South,182,0.0,0.0,94,0.00,,,0.00,weatherlink.com 1.10,2013-08-24 08:56:00,
2013-08-24 02:11:00,57.8,56.0,29.90,South,182,0.0,0.0,95,0.00,,,0.00,weatherlink.com 1.10,2013-08-24 09:11:00,
2013-08-24 02:26:00,57.5,56.0,29.90,South,182,0.0,0.0,95,0.00,,,0.00,weatherlink.com 1.10,2013-08-24 09:26:00,
2013-08-24 02:41:00,57.2,56.0,29.90,South,182,0.0,0.0,95,0.00,,,0.00,weatherlink.com 1.10,2013-08-24 09:41:00,
2013-08-24 02:56:00,56.9,56.0,29.90,South,182,0.0,0.0,95,0.00,,,0.00,weatherlink.com 1.10,2013-08-24 09:56:00,
2013-08-24 03:11:00,56.6,55.0,29.90,South,182,0.0,0.0,95,0.00,,,0.00,weatherlink.com 1.10,2013-08-24 10:11:00,
2013-08-24 03:26:00,56.4,55.0,29.90,South,182,0.0,0.0,95,0.00,,,0.00,weatherlink.com 1.10,2013-08-24 10:26:00,
2013-08-24 03:41:00,56.2,55.0,29.90,South,182,0.0,0.0,96,0.00,,,0.00,weatherlink.com 1.10,2013-08-24 10:41:00,
2013-08-24 03:56:00,56.1,55.0,29.90,South,182,0.0,0.0,96,0.00,,,0.00,weatherlink.com 1.10,2013-08-24 10:56:00,
2013-08-24 04:11:00,56.2,55.0,29.90,South,182,0.0,0.0,96,0.00,,,0.00,weatherlink.com 1.10,2013-08-24 11:11:00,
2013-08-24 04:26:00,56.3,56.0,29.90,South,182,0.0,0.0,97,0.00,,,0.00,weatherlink.com 1.10,2013-08-24 11:26:00,
2013-08-24 04:41:00,56.4,55.0,29.90,South,182,0.0,0.0,96,0.00,,,0.00,weatherlink.com 1.10,2013-08-24 11:41:00,
2013-08-24 04:56:00,56.7,56.0,29.90,South,182,0.0,0.0,96,0.00,,,0.00,weatherlink.com 1.10,2013-08-24 11:56:00,
2013-08-24 05:11:00,56.9,56.0,29.90,South,182,0.0,0.0,96,0.00,,,0.00,weatherlink.com 1.10,2013-08-24 12:11:00,
2013-08-24 05:26:00,57.1,56.0,29.89,South,182,0.0,0.0,96,0.00,,,0.00,weatherlink.com 1.10,2013-08-24 12:26:00,
2013-08-24 05:41:00,57.3,56.0,29.89,South,182,0.0,0.0,95,0.00,,,0.00,weatherlink.com 1.10,2013-08-24 12:41:00,
2013-08-24 05:56:00,57.4,56.0,29.89,South,182,0.0,0.0,96,0.00,,,0.00,weatherlink.com 1.10,2013-08-24 12:56:00,
2013-08-24 06:11:00,57.5,56.0,29.89,South,182,0.0,0.0,95,0.00,,,0.00,weatherlink.com 1.10,2013-08-24 13:11:00,
2013-08-24 06:26:00,57.6,57.0,29.89,South,182,0.0,0.0,96,0.00,,,0.00,weatherlink.com 1.10,2013-08-24 13:26:00,
2013-08-24 06:42:00,57.7,56.0,29.90,South,182,0.0,0.0,95,0.00,,,0.00,weatherlink.com 1.10,2013-08-24 13:42:00,
2013-08-24 06:57:00,57.9,57.0,29.90,South,182,0.0,0.0,96,0.00,,,0.00,weatherlink.com 1.10,2013-08-24 13:57:00,
2013-08-24 07:12:00,58.1,57.0,29.90,South,182,0.0,0.0,96,0.00,,,0.00,weatherlink.com 1.10,2013-08-24 14:12:00,
2013-08-24 07:27:00,58.2,57.0,29.90,South,182,0.0,0.0,95,0.00,,,0.00,weatherlink.com 1.10,2013-08-24 14:27:00,
2013-08-24 07:42:00,58.5,57.0,29.91,South,182,0.0,0.0,95,0.00,,,0.00,weatherlink.com 1.10,2013-08-24 14:42:00,
2013-08-24 07:57:00,58.8,57.0,29.91,South,182,0.0,0.0,94,0.00,,,0.00,weatherlink.com 1.10,2013-08-24 14:57:00,
2013-08-24 08:12:00,59.2,57.0,29.91,South,182,0.0,0.0,93,0.00,,,0.00,weatherlink.com 1.10,2013-08-24 15:12:00,
2013-08-24 08:27:00,59.5,57.0,29.91,South,182,0.0,0.0,92,0.00,,,0.00,weatherlink.com 1.10,2013-08-24 15:27:00,
2013-08-24 08:42:00,60.0,57.0,29.91,South,182,0.0,0.0,91,0.00,,,0.00,weatherlink.com 1.10,2013-08-24 15:42:00,
2013-08-24 08:57:00,60.5,58.0,29.91,South,182,0.0,0.0,90,0.00,,,0.00,weatherlink.com 1.10,2013-08-24 15:57:00,
2013-08-24 09:12:00,61.2,58.0,29.91,South,175,0.0,2.0,88,0.00,,,0.00,weatherlink.com 1.10,2013-08-24 16:12:00,
2013-08-24 09:27:00,61.6,58.0,29.91,SE,142,0.0,2.0,88,0.00,,,0.00,weatherlink.com 1.10,2013-08-24 16:27:00,
2013-08-24 09:42:00,61.9,58.0,29.91,SE,142,0.0,0.0,88,0.00,,,0.00,weatherlink.com 1.10,2013-08-24 16:42:00,
2013-08-24 09:57:00,61.7,59.0,29.91,SE,142,0.0,0.0,89,0.00,,,0.00,weatherlink.com 1.10,2013-08-24 16:57:00,
2013-08-24 10:12:00,61.4,58.0,29.91,SE,142,0.0,0.0,89,0.00,,,0.00,weatherlink.com 1.10,2013-08-24 17:12:00,
2013-08-24 10:27:00,61.2,58.0,29.91,SE,142,0.0,1.0,90,0.00,,,0.00,weatherlink.com 1.10,2013-08-24 17:27:00,
2013-08-24 10:42:00,61.4,58.0,29.91,SW,215,0.0,2.0,89,0.00,,,0.00,weatherlink.com 1.10,2013-08-24 17:42:00,
2013-08-24 10:57:00,61.6,59.0,29.91,SSE,163,1.0,2.0,91,0.00,,,0.00,weatherlink.com 1.10,2013-08-24 17:57:00,
2013-08-24 11:12:00,62.3,59.0,29.91,South,174,0.0,2.0,90,0.00,,,0.00,weatherlink.com 1.10,2013-08-24 18:12:00,
2013-08-24 11:27:00,62.7,60.0,29.91,SE,132,0.0,1.0,89,0.00,,,0.00,weatherlink.com 1.10,2013-08-24 18:27:00,
2013-08-24 11:42:00,62.7,59.0,29.91,South,186,0.0,1.0,88,0.00,,,0.00,weatherlink.com 1.10,2013-08-24 18:42:00,
2013-08-24 11:57:00,63.0,60.0,29.91,South,190,0.0,2.0,89,0.00,,,0.00,weatherlink.com 1.10,2013-08-24 18:57:00,
2013-08-24 12:12:00,63.7,60.0,29.90,SSW,193,0.0,1.0,86,0.00,,,0.00,weatherlink.com 1.10,2013-08-24 19:12:00,
2013-08-24 12:27:00,64.2,59.0,29.90,SE,143,0.0,4.0,83,0.00,,,0.00,weatherlink.com 1.10,2013-08-24 19:27:00,
2013-08-24 12:42:00,65.0,60.0,29.90,South,187,0.0,2.0,83,0.00,,,0.00,weatherlink.com 1.10,2013-08-24 19:42:00,
2013-08-24 12:57:00,65.5,59.0,29.90,SE,125,1.0,3.0,80,0.00,,,0.00,weatherlink.com 1.10,2013-08-24 19:57:00,
2013-08-24 13:12:00,65.3,60.0,29.90,SE,128,0.0,3.0,82,0.00,,,0.00,weatherlink.com 1.10,2013-08-24 20:12:00,
2013-08-24 13:27:00,65.0,60.0,29.90,SE,127,1.0,2.0,83,0.00,,,0.00,weatherlink.com 1.10,2013-08-24 20:27:00,
2013-08-24 13:42:00,65.7,60.0,29.90,SSE,159,1.0,2.0,83,0.00,,,0.00,weatherlink.com 1.10,2013-08-24 20:42:00,
2013-08-24 13:57:00,66.1,60.0,29.90,SSE,163,0.0,1.0,80,0.00,,,0.00,weatherlink.com 1.10,2013-08-24 20:57:00,
2013-08-24 14:12:00,66.2,60.0,29.90,SE,135,0.0,2.0,81,0.00,,,0.00,weatherlink.com 1.10,2013-08-24 21:12:00,
2013-08-24 14:27:00,66.3,60.0,29.90,NNW,342,0.0,5.0,80,0.00,,,0.00,weatherlink.com 1.10,2013-08-24 21:27:00,
2013-08-24 14:42:00,66.9,61.0,29.89,ENE,61,0.0,2.0,80,0.00,,,0.00,weatherlink.com 1.10,2013-08-24 21:42:00,
2013-08-24 15:01:00,67.2,61.0,29.89,SE,130,1.0,4.0,79,0.00,,,0.00,weatherlink.com 1.10,2013-08-24 22:01:00,
2013-08-24 15:12:00,67.6,60.0,29.89,South,191,0.0,5.0,77,0.00,,,0.00,weatherlink.com 1.10,2013-08-24 22:12:00,
2013-08-24 15:27:00,66.7,60.0,29.89,South,171,0.0,3.0,80,0.00,,,0.00,weatherlink.com 1.10,2013-08-24 22:27:00,
2013-08-24 15:42:00,66.6,60.0,29.89,SSE,161,2.0,3.0,78,0.00,,,0.00,weatherlink.com 1.10,2013-08-24 22:42:00,
2013-08-24 15:57:00,66.5,59.0,29.89,SSE,168,0.0,1.0,77,0.00,,,0.00,weatherlink.com 1.10,2013-08-24 22:57:00,
2013-08-24 16:12:00,66.4,61.0,29.89,SSW,212,0.0,2.0,82,0.00,,,0.00,weatherlink.com 1.10,2013-08-24 23:12:00,
2013-08-24 16:27:00,66.5,61.0,29.88,SSW,212,0.0,1.0,83,0.00,,,0.00,weatherlink.com 1.10,2013-08-24 23:27:00,
2013-08-24 16:42:00,66.7,59.0,29.88,SSW,212,0.0,1.0,76,0.00,,,0.00,weatherlink.com 1.10,2013-08-24 23:42:00,
2013-08-24 16:57:00,67.4,60.0,29.88,SSE,152,0.0,4.0,76,0.00,,,0.00,weatherlink.com 1.10,2013-08-24 23:57:00,
2013-08-24 17:12:00,67.4,59.0,29.87,SSW,205,0.0,2.0,75,0.00,,,0.00,weatherlink.com 1.10,2013-08-25 00:12:00,
2013-08-24 17:27:00,67.2,59.0,29.87,SSW,205,0.0,2.0,76,0.00,,,0.00,weatherlink.com 1.10,2013-08-25 00:27:00,
2013-08-24 17:42:00,67.0,60.0,29.87,SSW,206,0.0,1.0,79,0.00,,,0.00,weatherlink.com 1.10,2013-08-25 00:42:00,
2013-08-24 17:57:00,66.7,61.0,29.87,SSW,207,0.0,1.0,81,0.00,,,0.00,weatherlink.com 1.10,2013-08-25 00:57:00,
2013-08-24 18:12:00,66.6,61.0,29.86,SSW,207,0.0,0.0,81,0.00,,,0.00,weatherlink.com 1.10,2013-08-25 01:12:00,
2013-08-24 18:27:00,65.3,59.0,29.86,SSW,207,0.0,1.0,80,0.00,,,0.00,weatherlink.com 1.10,2013-08-25 01:27:00,
2013-08-24 18:42:00,64.6,59.0,29.86,SSW,207,0.0,1.0,81,0.00,,,0.00,weatherlink.com 1.10,2013-08-25 01:42:00,
2013-08-24 18:57:00,64.1,59.0,29.86,SSW,207,0.0,0.0,84,0.00,,,0.00,weatherlink.com 1.10,2013-08-25 01:57:00,
2013-08-24 19:12:00,63.6,59.0,29.86,SSW,208,0.0,0.0,84,0.00,,,0.00,weatherlink.com 1.10,2013-08-25 02:12:00,
2013-08-24 19:27:00,63.3,58.0,29.86,SSW,208,0.0,2.0,84,0.00,,,0.00,weatherlink.com 1.10,2013-08-25 02:27:00,
2013-08-24 19:42:00,63.1,58.0,29.87,SSW,208,0.0,1.0,84,0.00,,,0.00,weatherlink.com 1.10,2013-08-25 02:42:00,
2013-08-24 19:57:00,62.8,58.0,29.87,SSW,208,0.0,0.0,85,0.00,,,0.00,weatherlink.com 1.10,2013-08-25 02:57:00,
2013-08-24 20:12:00,62.4,58.0,29.88,SSW,208,0.0,0.0,86,0.00,,,0.00,weatherlink.com 1.10,2013-08-25 03:12:00,
2013-08-24 20:27:00,61.6,57.0,29.88,SSW,208,0.0,0.0,86,0.00,,,0.00,weatherlink.com 1.10,2013-08-25 03:27:00,
2013-08-24 20:43:00,60.7,57.0,29.89,SSW,208,0.0,0.0,88,0.00,,,0.00,weatherlink.com 1.10,2013-08-25 03:43:00,
2013-08-24 20:58:00,59.8,57.0,29.89,SSW,208,0.0,0.0,89,0.00,,,0.00,weatherlink.com 1.10,2013-08-25 03:58:00,
2013-08-24 21:13:00,59.2,57.0,29.90,SSW,208,0.0,0.0,91,0.00,,,0.00,weatherlink.com 1.10,2013-08-25 04:13:00,
2013-08-24 21:28:00,58.5,56.0,29.90,SSW,208,0.0,0.0,92,0.00,,,0.00,weatherlink.com 1.10,2013-08-25 04:28:00,
2013-08-24 21:43:00,58.1,56.0,29.90,SSW,208,0.0,0.0,91,0.00,,,0.00,weatherlink.com 1.10,2013-08-25 04:43:00,
2013-08-24 21:58:00,57.4,55.0,29.91,SSW,208,0.0,0.0,93,0.00,,,0.00,weatherlink.com 1.10,2013-08-25 04:58:00,
2013-08-24 22:13:00,57.0,55.0,29.91,SSW,209,0.0,0.0,93,0.00,,,0.00,weatherlink.com 1.10,2013-08-25 05:13:00,
2013-08-24 22:28:00,56.6,55.0,29.91,SSW,209,0.0,0.0,94,0.00,,,0.00,weatherlink.com 1.10,2013-08-25 05:28:00,
2013-08-24 22:43:00,56.2,55.0,29.92,SSW,209,0.0,0.0,94,0.00,,,0.00,weatherlink.com 1.10,2013-08-25 05:43:00,
2013-08-24 22:58:00,55.8,54.0,29.92,SSW,209,0.0,0.0,94,0.00,,,0.00,weatherlink.com 1.10,2013-08-25 05:58:00,
2013-08-24 23:13:00,55.6,54.0,29.93,SSW,209,0.0,0.0,95,0.00,,,0.00,weatherlink.com 1.10,2013-08-25 06:13:00,
2013-08-24 23:28:00,55.8,55.0,29.93,SSW,209,0.0,0.0,96,0.00,,,0.00,weatherlink.com 1.10,2013-08-25 06:28:00,
2013-08-24 23:43:00,55.9,55.0,29.93,SSW,209,0.0,0.0,96,0.00,,,0.00,weatherlink.com 1.10,2013-08-25 06:43:00,
2013-08-24 23:58:00,56.1,55.0,29.93,SSW,209,0.0,0.0,96,0.00,,,0.00,weatherlink.com 1.10,2013-08-25 06:58:00,